Weather History for Fairfield, IA

Change the Weather History Date:

Tuesday, February 5, 2013

  Actual Average Record
Temperature  
Mean Temperature 28 °F -  
Max Temperature 39 °F 30 °F 59 °F (1990)
Min Temperature 17 °F 12 °F -17 °F (1979)
Degree Days  
Heating Degree Days 37    
Moisture  
Dew Point 24 °F    
Average Humidity 82    
Maximum Humidity 93    
Minimum Humidity 70    
Precipitation  
Precipitation 0.00 in - - ()
Sea Level Pressure  
Sea Level Pressure 29.94 in    
Wind  
Wind Speed 7 mph (WSW)    
Max Wind Speed 17 mph    
Max Gust Speed 25 mph    
Visibility 9 miles    
Events      
Averages and records for this station are not official NWS values.
T = Trace of Precipitation, MM = Missing Value Source: NWS Daily Summary

Daily Weather History Graph

Daily Weather History Graph

Search for Another Location

Airport:

Trip Planner

Search our weather history database for the weather conditions in past years. The results will help you decide how hot, cold, wet, or windy it might be!

Date:

Astronomy

Feb. 05, 2013 Rise Set
Actual Time 7:14 AM CST 5:30 PM CST
Civil Twilight 6:45 AM CST 5:59 PM CST
Nautical Twilight 6:12 AM CST 6:31 PM CST
Astronomical Twilight 5:40 AM CST 7:03 PM CST
Moon 2:57 AM CST (2/5) 12:47 PM CST (2/5)
Length of Visible Light 11h 13m
Length of Day
10h 16m
Waning Crescent, 26% of the Moon is Illuminated
Feb 5
Waning Crescent
Feb 10
New
Feb 17
First Quarter
Feb 25
Full
Mar 4
Last Quarter

Hourly Weather History & Observations

Time (CST) Temp. Windchill Dew Point Humidity Pressure Visibility Wind Dir Wind Speed Gust Speed Precip Events Conditions
12:15 AM 19.4 °F 14.3 °F 15.8 °F 86% 29.96 in 7.0 mi WSW 3.5 mph - N/A   Scattered Clouds
12:35 AM 17.6 °F 12.3 °F 15.8 °F 93% 29.96 in 7.0 mi WSW 3.5 mph - N/A   Overcast
12:55 AM 19.4 °F - 15.8 °F 86% 29.94 in 10.0 mi Calm Calm - N/A   Overcast
1:15 AM 19.4 °F - 15.8 °F 86% 29.94 in 10.0 mi Calm Calm - N/A   Overcast
1:35 AM 19.4 °F 12.8 °F 15.8 °F 86% 29.92 in 10.0 mi SSE 4.6 mph - N/A   Overcast
1:55 AM 21.2 °F 14.9 °F 17.6 °F 86% 29.93 in 10.0 mi South 4.6 mph - N/A   Overcast
2:15 AM 21.2 °F 14.9 °F 17.6 °F 86% 29.92 in 10.0 mi South 4.6 mph - N/A   Overcast
2:35 AM 21.2 °F 16.4 °F 17.6 °F 86% 29.93 in 10.0 mi SSW 3.5 mph - N/A   Overcast
2:55 AM 21.2 °F 14.9 °F 17.6 °F 86% 29.91 in 10.0 mi SSW 4.6 mph - N/A   Overcast
3:15 AM 21.2 °F 14.9 °F 17.6 °F 86% 29.90 in 10.0 mi SSW 4.6 mph - N/A   Overcast
3:35 AM 21.2 °F 16.4 °F 17.6 °F 86% 29.90 in 10.0 mi SSW 3.5 mph - N/A   Overcast
3:55 AM 21.2 °F 14.9 °F 17.6 °F 86% 29.88 in 10.0 mi South 4.6 mph - N/A   Overcast
4:15 AM 21.2 °F 10.9 °F 17.6 °F 86% 29.87 in 10.0 mi South 9.2 mph - N/A   Scattered Clouds
4:35 AM 21.2 °F 12.6 °F 17.6 °F 86% 29.87 in 10.0 mi South 6.9 mph - N/A   Overcast
4:55 AM 21.2 °F 14.9 °F 17.6 °F 86% 29.87 in 10.0 mi SSW 4.6 mph - N/A   Overcast
5:15 AM 21.2 °F 12.6 °F 17.6 °F 86% 29.86 in 10.0 mi South 6.9 mph - N/A   Overcast
5:35 AM 23.0 °F 14.7 °F 17.6 °F 80% 29.86 in 10.0 mi South 6.9 mph - N/A   Overcast
5:55 AM 23.0 °F 15.8 °F 19.4 °F 86% 29.86 in 10.0 mi South 5.8 mph - N/A   Mostly Cloudy
6:15 AM 21.2 °F 12.6 °F 17.6 °F 86% 29.85 in 10.0 mi SSW 6.9 mph - N/A   Scattered Clouds
6:35 AM 23.0 °F 13.1 °F 17.6 °F 80% 29.85 in 10.0 mi SSW 9.2 mph - N/A   Clear
6:55 AM 23.0 °F 12.4 °F 19.4 °F 86% 29.84 in 10.0 mi SSW 10.4 mph - N/A   Clear
7:15 AM 23.0 °F 13.9 °F 19.4 °F 86% 29.85 in 7.0 mi SSW 8.1 mph - N/A   Clear
7:35 AM 23.0 °F 13.9 °F 17.6 °F 80% 29.85 in 7.0 mi SSW 8.1 mph - N/A   Clear
7:55 AM 23.0 °F 13.9 °F 19.4 °F 86% 29.85 in 7.0 mi SSW 8.1 mph - N/A   Clear
8:15 AM 24.8 °F 15.3 °F 19.4 °F 80% 29.85 in 7.0 mi SSW 9.2 mph - N/A   Clear
8:35 AM 24.8 °F 15.3 °F 19.4 °F 80% 29.84 in 7.0 mi SSW 9.2 mph - N/A   Clear
8:55 AM 26.6 °F 16.2 °F 21.2 °F 80% 29.84 in 7.0 mi SW 11.5 mph - N/A   Clear
9:15 AM 28.4 °F 18.0 °F 23.0 °F 80% 29.83 in 7.0 mi SW 12.7 mph - N/A   Scattered Clouds
9:35 AM 28.4 °F 18.5 °F 23.0 °F 80% 29.84 in 7.0 mi WSW 11.5 mph - N/A   Scattered Clouds
9:55 AM 30.2 °F 21.9 °F 24.8 °F 80% 29.84 in 7.0 mi WSW 9.2 mph - N/A   Clear
10:15 AM 30.2 °F 22.6 °F 24.8 °F 80% 29.85 in 10.0 mi WSW 8.1 mph - N/A   Clear
10:35 AM 32.0 °F 23.6 °F 26.6 °F 80% 29.85 in 10.0 mi WSW 10.4 mph - N/A   Clear
10:55 AM 33.8 °F 25.8 °F 26.6 °F 75% 29.85 in 10.0 mi WSW 10.4 mph - N/A   Clear
11:15 AM 35.6 °F 28.0 °F 28.4 °F 75% 29.86 in 10.0 mi West 10.4 mph - N/A   Clear
11:35 AM 35.6 °F 28.0 °F 28.4 °F 75% 29.87 in 10.0 mi West 10.4 mph - N/A   Clear
11:55 AM 37.4 °F 29.3 °F 28.4 °F 70% 29.87 in 10.0 mi West 12.7 mph - N/A   Clear
12:15 PM 37.4 °F 28.9 °F 30.2 °F 75% 29.87 in 10.0 mi West 13.8 mph 19.6 mph N/A   Clear
12:35 PM 37.4 °F 28.5 °F 30.2 °F 75% 29.88 in 10.0 mi WNW 15.0 mph 19.6 mph N/A   Clear
12:55 PM 37.4 °F 27.8 °F 30.2 °F 75% 29.89 in 10.0 mi WNW 17.3 mph 25.3 mph N/A   Mostly Cloudy
1:15 PM 37.4 °F 27.8 °F 30.2 °F 75% 29.90 in 10.0 mi NW 17.3 mph 21.9 mph N/A   Overcast
1:35 PM 37.4 °F 28.5 °F 30.2 °F 75% 29.91 in 10.0 mi WNW 15.0 mph 21.9 mph N/A   Overcast
1:55 PM 37.4 °F 29.8 °F 30.2 °F 75% 29.91 in 10.0 mi WNW 11.5 mph 16.1 mph N/A   Overcast
2:15 PM 39.2 °F 31.2 °F 32.0 °F 75% 29.91 in 10.0 mi WNW 13.8 mph - N/A   Scattered Clouds
2:35 PM 39.2 °F 32.0 °F 33.8 °F 81% 29.92 in 10.0 mi WNW 11.5 mph - N/A   Clear
2:55 PM 39.2 °F 31.2 °F 33.8 °F 81% 29.93 in 10.0 mi WNW 13.8 mph - N/A   Scattered Clouds
3:15 PM 39.2 °F 31.6 °F 33.8 °F 81% 29.94 in 10.0 mi NW 12.7 mph 19.6 mph N/A   Scattered Clouds
3:35 PM 37.4 °F 29.8 °F 32.0 °F 81% 29.96 in 10.0 mi NW 11.5 mph - N/A   Scattered Clouds
3:55 PM 37.4 °F 30.8 °F 30.2 °F 75% 29.96 in 10.0 mi NW 9.2 mph - N/A   Mostly Cloudy
4:15 PM 37.4 °F 30.3 °F 30.2 °F 75% 29.97 in 10.0 mi NW 10.4 mph - N/A   Mostly Cloudy
4:35 PM 37.4 °F 29.8 °F 32.0 °F 81% 29.98 in 10.0 mi NW 11.5 mph - N/A   Scattered Clouds
4:55 PM 37.4 °F 30.3 °F 30.2 °F 75% 29.99 in 10.0 mi NW 10.4 mph - N/A   Scattered Clouds
5:15 PM 35.6 °F 27.1 °F 30.2 °F 81% 30.00 in 10.0 mi NNW 12.7 mph - N/A   Mostly Cloudy
5:35 PM 35.6 °F 29.2 °F 30.2 °F 81% 30.01 in 10.0 mi NNW 8.1 mph - N/A   Overcast
5:55 PM 35.6 °F 29.9 °F 30.2 °F 81% 30.02 in 10.0 mi WNW 6.9 mph - N/A   Overcast
6:15 PM 35.6 °F 29.9 °F 30.2 °F 81% 30.02 in 10.0 mi NW 6.9 mph - N/A   Overcast
6:35 PM 35.6 °F 30.7 °F 28.4 °F 75% 30.03 in 10.0 mi WNW 5.8 mph - N/A   Overcast
6:55 PM 33.8 °F 28.6 °F 28.4 °F 81% 30.04 in 10.0 mi WNW 5.8 mph - N/A   Scattered Clouds
7:15 PM 33.8 °F 29.6 °F 28.4 °F 81% 30.03 in 10.0 mi West 4.6 mph - N/A   Clear
7:35 PM 33.8 °F - 28.4 °F 81% 30.04 in 10.0 mi Calm Calm - N/A   Clear
7:55 PM 33.8 °F 29.6 °F 28.4 °F 81% 30.05 in 10.0 mi WSW 4.6 mph - N/A   Clear
8:15 PM 32.0 °F 27.5 °F 26.6 °F 80% 30.05 in 10.0 mi WSW 4.6 mph - N/A   Clear
8:35 PM 32.0 °F 27.5 °F 26.6 °F 80% 30.06 in 10.0 mi WSW 4.6 mph - N/A   Clear
8:55 PM 30.2 °F 26.7 °F 26.6 °F 86% 30.07 in 10.0 mi West 3.5 mph - N/A   Clear
9:15 PM 30.2 °F 25.4 °F 26.6 °F 86% 30.08 in 10.0 mi WSW 4.6 mph - N/A   Clear
9:35 PM 30.2 °F 25.4 °F 26.6 °F 86% 30.09 in 10.0 mi WSW 4.6 mph - N/A   Clear
9:55 PM 30.2 °F 25.4 °F 26.6 °F 86% 30.09 in 7.0 mi West 4.6 mph - N/A   Clear
10:15 PM 30.2 °F 25.4 °F 26.6 °F 86% 30.09 in 10.0 mi WNW 4.6 mph - N/A   Clear
10:35 PM 30.2 °F - 26.6 °F 86% 30.09 in 10.0 mi Calm Calm - N/A   Clear
10:55 PM 30.2 °F 25.4 °F 26.6 °F 86% 30.10 in 7.0 mi West 4.6 mph - N/A   Clear
11:15 PM 28.4 °F 24.6 °F 24.8 °F 86% 30.10 in 5.0 mi West 3.5 mph - N/A   Clear
11:35 PM 28.4 °F 24.6 °F 24.8 °F 86% 30.11 in 7.0 mi WNW 3.5 mph - N/A   Clear
11:55 PM 28.4 °F 23.3 °F 24.8 °F 86% 30.11 in 7.0 mi NW 4.6 mph - N/A   Clear